Overview Statistics Trail Chart Weather Telemetry Raw packets
 

This is the latest recevied weather packets stored in our database for station/object OE6JVE-13. If no packets are shown the sender has not sent any weather packets the latest 10 day(s).

<< 18 19 20 21 22 23 24 >>
Time Temp. Humidity Pressure Rain* Wind** Luminosity Snow
1788359454 28.89° C 42% 1009.9 hPa 0 mm - - -
1788358863 28.33° C 41% 1009.9 hPa 0 mm - - -
1788358269 28.33° C 41% 1010 hPa 0 mm - - -
1788357678 27.78° C 43% 1010 hPa 0 mm - - -
1788357019 27.22° C 43% 1010 hPa 0 mm - - -
1788356427 27.22° C 46% 1010.2 hPa 0 mm - - -
1788355835 28.33° C 43% 1010.3 hPa 0 mm - - -
1788355243 28.33° C 40% 1010.2 hPa 0 mm - - -
1788354650 28.89° C 40% 1010.3 hPa 0 mm - - -
1788354058 28.89° C 39% 1010.3 hPa 0 mm - - -
1788352898 28.33° C 41% 1010.7 hPa 0 mm - - -
1788352215 27.78° C 42% 1010.8 hPa 0 mm - - -
1788351629 28.33° C 43% 1010.9 hPa 0 mm - - -
1788351033 27.78° C 45% 1011.1 hPa 0 mm - - -
1788350476 27.22° C 44% 1011.3 hPa 0 mm - - -
1788349848 27.78° C 44% 1011.6 hPa 0 mm - - -
1788349255 27.22° C 48% 1011.6 hPa 0 mm - - -
1788348663 27.22° C 50% 1011.7 hPa 0 mm - - -
1788348071 27.22° C 51% 1011.9 hPa 0 mm - - -
1788347479 26.67° C 51% 1012.1 hPa 0.25 mm - - -
1788346820 26.67° C 50% 1012.3 hPa 0.25 mm - - -
1788346229 26.11° C 53% 1012.5 hPa 0.25 mm - - -
1788345637 25.56° C 56% 1012.6 hPa 0.25 mm - - -
1788345044 25.56° C 58% 1012.8 hPa 0.25 mm - - -
1788344455 25.56° C 58% 1013 hPa 0.25 mm - - -

* Rain latest hour (hover to see other rain measurements)
** Current wind speed in m/s (hover to see current wind gust speed)